Lynchburg, VA

2:39 PM EDT on October 23, 2019 (GMT -0400)
Lynchburg Regional-Glenn

Weather History for KLYH - August, 2019

Change the Weather History Date:

Monday, August 12, 2019

  Actual Average Record
Temperature  
Mean Temperature 76 °F 75 °F  
Max Temperature 90 °F 86 °F 98 °F (1900)
Min Temperature 61 °F 64 °F 49 °F (2008)
Degree Days  
Heating Degree Days 0 0  
Month to date heating degree days 0 0  
Since 1 June heating degree days 2 15  
Since 1 July heating degree days 0 1  
Cooling Degree Days 11 10  
Month to date cooling degree days 139 120  
Year to date cooling degree days 994 734  
Since 1 June cooling degree days 782 652  
Growing Degree Days 26 (Base 50)    
Moisture  
Dew Point 67 °F    
Average Humidity 69    
Maximum Humidity 93    
Minimum Humidity 44    
Precipitation  
Precipitation T in 0.09 in 2.07 in (1901)
Month to date precipitation 2.16 1.31  
Year to date precipitation 26.50 25.98  
Snow  
Snow 0.00 in - - ()
Month to date snowfall 0.0  
Since 1 June snowfall 0.0  
Since 1 July snowfall 0.0  
Snow Depth 0.00 in    
Sea Level Pressure  
Sea Level Pressure 29.99 in    
Wind  
Wind Speed 5 mph (SSW)    
Max Wind Speed 13 mph    
Max Gust Speed 20 mph    
Visibility 10 miles    
Events Rain    
T = Trace of Precipitation, MM = Missing Value Source: NWS Daily Summary

Daily Weather History Graph

Daily Weather History Graph

Search for Another Location

Airport or City:

Astronomy

Aug. 12, 2019 Rise Set
Actual Time 6:30 AM EDT 8:12 PM EDT
Civil Twilight 6:02 AM EDT 8:40 PM EDT
Nautical Twilight 5:28 AM EDT 9:14 PM EDT
Astronomical Twilight 4:52 AM EDT 9:50 PM EDT
Moon 6:38 PM EDT (8/12) 3:41 AM EDT (8/12)
Length of Visible Light 14h 38m
Length of Day
13h 42m
Waxing Gibbous, 93% of the Moon is Illuminated
Aug 12
Waxing Gibbous
Aug 15
Full
Aug 23
Last Quarter
Aug 30
New
Sep 5
First Quarter

Hourly Weather History & Observations

Time (EDT) Temp. Heat Index Dew Point Humidity Pressure Visibility Wind Dir Wind Speed Gust Speed Precip Events Conditions
12:54 AM 64.9 °F - 61.0 °F 87% 30.04 in 10.0 mi Calm Calm - N/A   Clear
1:54 AM 63.0 °F - 61.0 °F 93% 30.04 in 10.0 mi Calm Calm - N/A   Clear
2:54 AM 62.1 °F - 61.0 °F 96% 30.02 in 10.0 mi Calm Calm - N/A   Clear
3:54 AM 62.1 °F - 60.1 °F 93% 30.02 in 10.0 mi Calm Calm - N/A   Clear
4:54 AM 62.1 °F - 61.0 °F 96% 30.02 in 10.0 mi Calm Calm - N/A   Clear
5:54 AM 62.1 °F - 61.0 °F 96% 30.02 in 10.0 mi Calm Calm - N/A   Clear
6:54 AM 62.1 °F - 61.0 °F 96% 30.04 in 10.0 mi Calm Calm - N/A   Clear
7:54 AM 69.1 °F - 64.0 °F 84% 30.03 in 10.0 mi Calm Calm - N/A   Clear
8:54 AM 75.0 °F - 64.0 °F 69% 30.04 in 10.0 mi Variable 3.5 mph - N/A   Scattered Clouds
9:04 AM 75.9 °F - 66.0 °F 71% 30.06 in 10.0 mi SW 5.8 mph - N/A   Scattered Clouds
9:54 AM 77.0 °F - 68.0 °F 74% 30.03 in 10.0 mi SW 8.1 mph - N/A   Mostly Cloudy
10:30 AM 79.0 °F - 69.1 °F 72% 30.06 in 10.0 mi SW 6.9 mph - N/A   Scattered Clouds
10:54 AM 79.0 °F - 71.1 °F 77% 30.03 in 10.0 mi SSW 10.4 mph - N/A   Partly Cloudy
11:26 AM 81.0 °F 84.9 °F 71.1 °F 72% 30.06 in 10.0 mi West 8.1 mph - N/A   Mostly Cloudy
11:37 AM 80.6 °F 83.9 °F 69.8 °F 70% 30.06 in 10.0 mi SSW 6.9 mph - N/A   Scattered Clouds
11:54 AM 82.9 °F 87.5 °F 71.1 °F 67% 30.03 in 10.0 mi Variable 6.9 mph - N/A   Mostly Cloudy
12:54 PM 84.9 °F 88.8 °F 69.1 °F 59% 30.02 in 10.0 mi SSW 8.1 mph - N/A   Mostly Cloudy
1:01 PM 84.9 °F 89.4 °F 70.0 °F 61% 30.04 in 10.0 mi SW 6.9 mph - N/A   Scattered Clouds
1:54 PM 88.0 °F 92.1 °F 69.1 °F 53% 30.00 in 10.0 mi South 10.4 mph - N/A   Mostly Cloudy
2:54 PM 88.0 °F 90.7 °F 66.9 °F 49% 29.97 in 10.0 mi SSW 8.1 mph - N/A   Mostly Cloudy
3:54 PM 89.1 °F 91.3 °F 66.0 °F 46% 29.95 in 10.0 mi SSW 4.6 mph - N/A   Scattered Clouds
4:54 PM 89.1 °F 90.3 °F 64.0 °F 43% 29.92 in 10.0 mi SSW 5.8 mph - N/A   Partly Cloudy
5:54 PM 88.0 °F 90.3 °F 66.0 °F 48% 29.92 in 10.0 mi SSW 6.9 mph - N/A   Clear
6:54 PM 86.0 °F 90.1 °F 69.1 °F 57% 29.91 in 10.0 mi South 9.2 mph - N/A   Clear
7:54 PM 82.0 °F 85.9 °F 70.0 °F 67% 29.91 in 10.0 mi South 6.9 mph - N/A   Clear
8:54 PM 78.1 °F - 70.0 °F 76% 29.91 in 10.0 mi SSW 3.5 mph - N/A   Clear
9:54 PM 78.1 °F - 70.0 °F 76% 29.93 in 10.0 mi SSW 4.6 mph - N/A   Clear
10:54 PM 77.0 °F - 70.0 °F 79% 29.93 in 10.0 mi SW 3.5 mph - N/A   Clear
11:54 PM 77.0 °F - 70.0 °F 79% 29.92 in 10.0 mi SSW 4.6 mph - 0.00 in Rain Light Rain